Weather in Negodyayka

Russia / Altai Krai     51°55′27″N   85°44′29″E
temp.,
°C
wind,
m/s
gust,
m/s
humid.,
%
clouds,
%
prec.,
mm/h
press.,
hPa
HPBL,
m
13 may, thu
thu1300:00+8s338289 0.2 101539
03:00+7s338594 0.0 101641
06:00+8s348373 0.1 1016104
09:00+15sw235428 0.0 1015635
12:00+18nnw324434 0.0 10131853
15:00+12w367587 0.6 1014222
18:00+14wsw226555 0.8 1013272
21:00+10sw2277100 0.1 101519
14 may, fri
fri1400:00+10sw2280100 0.1 101528
03:00+9wsw1291100 0.6 101555
06:00+9wnw1191100 0.8 101640
09:00+9wnw1294100 0.4 1018180
12:00+9w2493100 1.1 1019370
15:00+12wnw347799 1.3 1020709
18:00+12w257867 3.5 1021360
21:00+9sw2282100 0.2 102412
15 may, sat
sat1500:00+8sw228471 0.2 102513
03:00+7ssw228798 0.0 102512
06:00+8ssw2284100 0.0 102645
09:00+11ssw1274100 0.0 1026212
12:00+15wsw125823 0.0 1026776
15:00+18nw11495 0.0 1023934
18:00+18wnw11564 0.0 1022573
21:00+12s11725 0.0 102210
16 may, sun
sun1600:00+10s327866 0.0 102223
03:00+10s33776 0.0 102033
06:00+11s35765 0.0 102093
09:00+20ssw355197 0.0 1018497
12:00+23w574441 0.0 10171754
15:00+24wnw5851100 0.0 10151798
18:00+19nw137295 0.3 1014114
21:00+13sw3795100 2.9 1018271
17 may, mon
mon1700:00+12ssw3391100 4.1 101770
03:00+11s22905 0.1 101817
06:00+13ssw128452 0.1 101861
09:00+18wnw126833 0.0 1018681
12:00+20nw336316 0.1 10171326
15:00+22nw33535 0.1 10161537
18:00+21n12625 0.1 10161024
21:00+15sse22785 0.0 101611